Terminal Aerodrome Forecast
Issued by NWS Dallas/Fort Worth, TX

Home | Current Version | Previous Version | Text Only | Print | Product List | Glossary On
Versions: 1 2 3 4 5 6 7 8 9 10 11 12 13 14 15 16 17 18 19 20 21 22 23 24 25 26 27 28
000
FTUS44 KFWD 202000 AAA
TAFACT
TAF AMD
KACT 202050Z 2021/2118 16014KT P6SM SCT060 BKN200
     FM211100 17013KT P6SM BKN015
     FM211700 19015KT P6SM SCT040=

USA.gov is the U.S. government's official web portal to all federal, state and local government web resources and services.